Location: Borz?cin
(51.1714°N, 19.6030°E)
Time: 22:03:56
(UTC+00:00)

Cosmos 1758 - Pass Details

Date: 19 May 2025
Orbit: 491 x 512 km, 82.5° (Epoch: 16 June)

Event Time Altitude Azimuth Distance (km) Brightness Sun altitude
Rises 23:18:14 0° 349° (N) 2,643 8.1 -18.3°
Reaches altitude 10° 23:20:22 10° 350° (N) 1,750 7.0 -18.2°
Maximum altitude 23:24:13 86° 76° (ENE) 521 3.1 -18.1°
Enters shadow 23:25:22 44° 166° (SSE) 718 3.5 -18.1°
